Location: Newark
(56.0692°N, 115.8617°E)
Time: 12:49:58
(UTC+00:00)

Vanguard 2 Rocket - Pass Details

Date: 01 June 2020
Orbit: 556 x 3325 km, 32.9° (Epoch: 14 July)

Event Time Altitude Azimuth Distance (km) Brightness Sun altitude
Rises 06:10:35 0° 189° (S) 3,874 10.6 49.9°
Reaches altitude 10° 06:17:22 10° 146° (SSE) 3,700 10.2 49.2°
Maximum altitude 06:17:55 10° 143° (SE) 3,758 10.2 49.1°
Drops below altitude 10° 06:18:29 10° 140° (SE) 3,827 10.2 49.1°
Sets 06:28:10 0° 103° (ESE) 5,852 10.8 48.1°
